Regional Weather Roundup
Issued by NWS

Home | Current Version | Previous Version | Graphics & Text | Print | Product List | Glossary Off
Versions: 1 2 3 4 5 6 7 8 9 10 11 12 13 14 15 16 17 18 19 20 21 22 23 24 25 26 27 28 29 30 31 32 33 34 35 36 37 38 39 40 41 42 43 44 45 46 47 48 49 50

377
ASUS43 KMKX 300221
RWRWI

WISCONSIN REGIONAL WEATHER ROUNDUP
NATIONAL WEATHER SERVICE MILWAUKEE/SULLIVAN WI
900 PM CDT FRI APR 29 2016

NOTE: "FAIR" INDICATES FEW OR NO CLOUDS BELOW 12,000 FEET WITH NO
SIGNIFICANT WEATHER AND/OR OBSTRUCTIONS TO VISIBILITY.

WIZ001-002-006>008-014>016-023>028-300300-
NORTHWEST WISCONSIN

CITY           SKY/WX    TMP DP  RH WIND       PRES   REMARKS
SUPERIOR ARPT  CLEAR     40  31  72 E7        30.22S WCI  35
ASHLAND        CLEAR     34  29  82 NE6       30.22S WCI  29
HAYWARD        CLEAR     45  29  53 NE8       30.18R
SIREN          CLEAR     51  31  45 NE7       30.15R
CUMBERLAND     CLEAR     48  32  53 NE8       30.13S
RICE LAKE      CLOUDY    52  32  45 N17       30.14R
CHETEK         CLOUDY    53  43  66 E5        30.12S
LADYSMITH      PTCLDY    50  32  50 N13G21    30.16R
EAU CLAIRE     CLEAR     50  38  63 S7        30.11S
MENOMONIE      CLEAR     47  37  66 SE3       30.12S
NEW RICHMOND   CLEAR     49  40  71 CALM      30.11F
OSCEOLA        CLEAR     52  37  57 NE7       30.14S
$$

WIZ003>005-009-010-017-018-300300-
NORTH CENTRAL WISCONSIN

CITY           SKY/WX    TMP DP  RH WIND       PRES   REMARKS
MANITOWISH WTR CLEAR     44  30  58 NE7       30.17R
ARBOR VITAE    MOCLDY    50  33  52 N8        30.15S
WOODRUFF       MOCLDY    50  33  52 N8        30.15S
RHINELANDER    MOCLDY    49  32  52 CALM      30.14S
EAGLE RIVER    CLOUDY    49  30  48 N8        30.15R
LAND O LAKES   CLOUDY    48  29  47 NE10      30.18R
PHILLIPS       CLOUDY    47  32  54 N16G23    30.14S
TOMAHAWK       PTCLDY    45  38  78 CALM      30.13F
MEDFORD        CLEAR     44  38  82 CALM      30.12F
MERRILL        CLEAR     41  37  84 CALM      30.14F
$$

WIZ029-030-035-036-043>047-300300-
CENTRAL WISCONSIN

CITY           SKY/WX    TMP DP  RH WIND       PRES   REMARKS
WAUSAU         CLEAR     50  34  54 E5        30.12S
MOSINEE        MOCLDY    48  34  57 E5        30.14S
MARSHFIELD     MOCLDY    50  35  56 E3        30.12R
STEVENS POINT  CLOUDY    47  36  65 E5        30.14S
WAUPACA        CLEAR     51  32  49 NE3       30.14F
WAUTOMA        NOT AVBL
WISC RAPIDS    CLOUDY    50  35  56 SE6       30.14S
CAMP DOUGLAS   PTCLDY    47  46  99 SE5       30.11S
$$

WIZ011>013-019>022-031-037>040-048>050-300300-
NORTHEAST WISCONSIN

CITY           SKY/WX    TMP DP  RH WIND       PRES   REMARKS
ANTIGO         CLEAR     43  34  71 CALM      30.15S
SHAWANO        CLOUDY    50  32  50 CALM      30.16S
OCONTO         PTCLDY    41  34  76 CALM      30.15F
STURGEON BAY   CLEAR     43  28  56 CALM      30.18S
GREEN BAY      CLEAR     45  31  58 E3        30.15F
MANITOWOC      CLEAR     45  27  49 MISG      30.17S
APPLETON       PTCLDY    50  30  46 E6        30.12F
CLINTONVILLE   CLEAR     46  32  57 E3        30.15S
OSHKOSH        CLEAR     47  32  56 SE6       30.13F
$$

WIZ032>034-041-042-053>061-300300-
SOUTHWEST WISCONSIN

CITY           SKY/WX    TMP DP  RH WIND       PRES   REMARKS
LA CROSSE      CLOUDY    50  41  71 N5        30.11F
SPARTA         CLOUDY    47  42  82 CALM      30.12S
VIROQUA        CLOUDY    46  38  73 CALM      30.10S
BOSCOBEL       CLOUDY    49  41  74 CALM      30.11F
PRAIRIE DU CHI CLOUDY    49  38  65 CALM      30.11R
PLATTEVILLE    CLOUDY    46  41  85 E6        30.10S
$$

WIZ056-057-062-063-064-067-068-300300-
SOUTH CENTRAL WISCONSIN

CITY           SKY/WX    TMP DP  RH WIND       PRES   REMARKS
REEDSBURG      CLEAR     46  39  77 NE3       30.11S
BARABOO/DELLS  CLEAR     43  37  79 CALM      30.12R
LONE ROCK      PTCLDY    44  39  82 CALM      30.11F
MINERAL POINT  CLOUDY    46  41  81 CALM      30.10S
MADISON        PTCLDY    45  38  76 E8        30.12R
MIDDLETON      CLEAR     44  41  91 CALM      30.11F
WATERTOWN      CLEAR     43  36  77 E6        30.14R
MONROE         CLOUDY    45  39  81 E3        30.10S
JANESVILLE     CLEAR     45  43  93 E5        30.11F
$$

WIZ051-052-058>065-066-070>072-300300-
SOUTHEAST WISCONSIN

CITY           SKY/WX    TMP DP  RH WIND       PRES   REMARKS
MILWAUKEE      PTCLDY    40  33  76 NE5       30.15R
WAUKESHA       CLEAR     39  34  81 E5        30.15R
MILWAUKEE/TIMM CLEAR     43  28  56 CALM      30.16R
RACINE         CLOUDY    41  34  76 NE5       30.17R
BURLINGTON     MOCLDY    41  36  81 E6        30.14S
KENOSHA        CLOUDY    42  36  79 E7        30.15S
FOND DU LAC    CLEAR     47  30  51 E8        30.13F
SHEBOYGAN      CLEAR     39  27  62 CALM      30.15F
WEST BEND      CLEAR     41  30  65 E3        30.15R
JUNEAU         CLEAR     43  35  73 E9        30.15R
$$

LSZ147-162-300300-
LAKE SUPERIOR

STATION/POSITION TIME  TEMP    WIND        PRES    WAVE
                       AIR SEA DIR/SP/G            HT/PER
                 (UTC) (F)     (DEG/KT/KT) (MB)    (FT/S)
W MID LAKE BUOY  0150   37 37  350/  6/  6 1024.7R   1/ 4
DEVILS ISLAND    0200   38      30/  7/  8 1024.6R
SAXON HARBOR     0100   39     350/  4/  5 1023.0
$$

LMZ867-665-643>646-300300-
LAKE MICHIGAN

STATION/POSITION TIME  TEMP    WIND        PRES    WAVE
                       AIR SEA DIR/SP/G            HT/PER
                 (UTC) (F)     (DEG/KT/KT) (MB)    (FT/S)
CHAMBERS ISLAND  0100   44      CALM  /  1 1021.7R
N MID LAKE BUOY  0150   40 39  320/  4/  8 1022.1R   0
NORTHPORT PIER   0200   42     310/  4/  8 1021.3S
ALGOMA LAKESHORE 0115           60/  3/  4   N/A
KEWAUNEE LAKESHO 0100   45                 1020.7R
SHEBOYGAN LAKESH 0200   44      10/  6/  7 1021.8F
PORT WASHINGTON  0100   44      30/  5/  8 1021.7F
S MID LAKE BUOY  0150   41 40   40/  8/ 10 1021.2R   1/ 3
KENOSHA   LAKESH 0200   42      40/  9/ 10 1021.0S
$$

TC  - TEMPERATURE IN CELSIUS
VSB - VISIBILITY IN STATUTE MILES
WCI - WIND CHILL INDEX
HX  - HEAT INDEX





USA.gov is the U.S. government's official web portal to all federal, state and local government web resources and services.